Beaufort MCAS - Merritt Field Beaufort US
ICAO: KNBC
IATA: NBC
Category: Medium
Scheduled Services: No

Elevation: 37 ft
TransAlt. 18000 ft.

Airport Communications:
APP/DEP:118.45
ATIS:27.8
GND/CLNC DEL:128.15
BASE OPS:28.18
PMSV METRO:26.45
TWR:119.05

KNBC Zoom In..

If you have problems with the map follow the link
https://www.worldairports.se/pages/airport.php?
ICAO=KNBC

Runways:

(A) RW 05 length 12202 ft width 200 ft
---- / hdg 47

(B) RW 14 length 7999 ft width 200 ft
---- / hdg 140

(C) RW 23 length 12202 ft width 200 ft
---- / hdg 227

(D) RW 32 length 7999 ft width 200 ft
---- / hdg 320

Location; KNBC
Day. 12 / Time. 10.56 Zulu
* Altimeter: 30.52
* Temperature: 05° c. 41°f.
* Wind from: 030° Speed 08 kn.
Dewpoint: -02° c.
Visibility: 10 Statute Miles.
Clouds: Clear (automated report).

KNBC 121056Z AUTO 03008KT 10SM CLR 05/M02 A3052 RMK AO2 SLP333 T00501022


Wind From 030°
Speed 08 kn.

 
 
jpsmedia worldairports.se 2019   terms of use